Tracking 26321 objects as of 27-Nov-2022
HD Live streaming from Space Station
objects crossing your sky now

STARLINK-4778

Track STARLINK-4778 now!
10-day predictions
STARLINK-4778 is classified as:


NORAD ID: 53836
Int'l Code: 2022-114U
Perigee: 418.2 km
Apogee: 419.9 km
Inclination: 53.2 °
Period: 92.8 minutes
Semi major axis: 6790 km
RCS: Unknown
Launch date: September 19, 2022
Source: United States (US)
Launch site: AIR FORCE EASTERN TEST RANGE (AFETR)
aabbcc
Your satellite tracking list
Your tracking list is empty




NASA's NSSDC Master Catalog

Two Line Element Set (TLE):
1 53836U 22114U   22331.25001157 -.01148545  00000-0 -21101-1 0  9993
2 53836  53.2171 276.9936 0001235  72.3113  49.8446 15.51645315 11469
Source of the keplerian elements: AFSPC